APRIZESAT 2 1 28366U 04025A 21066.13015958 .00000000 00000-0 14224-4 0 9990 2 28366 98.2341 312.2924 0106597 299.6086 59.4514 14.36730831874716 SAUDICOMSAT 1 1 28369U 04025D 21065.81420082 .00000082 00000-0 31220-4 0 9990 2 28369 98.3759 21.4637 0033794 165.8987 194.3160 14.52602661883954 SAUDICOMSAT 2 1 28370U 04025E 21065.80169768 .00000072 00000-0 31761-4 0 9991 2 28370 98.4683 19.1930 0057468 340.6254 19.2753 14.47530083880971 APRIZESAT 1 1 28372U 04025G 21065.44227036 .00000037 00000-0 21785-4 0 9992 2 28372 98.4288 19.6536 0045078 260.6824 98.9271 14.49662743882296 NANOSAT-1 1 28493U 04049B 21065.71619781 .00000111 00000-0 24905-4 0 9994 2 28493 98.1092 161.5390 0004334 5.7392 354.3864 14.73650349870978 SAUDICOMSAT 7 1 31119U 07012C 21065.88353808 .00000088 00000-0 26793-4 0 9999 2 31119 98.1297 12.8722 0061196 114.7676 245.9909 14.61843359740395 SAUDICOMSAT 6 1 31121U 07012E 21065.76561327 .00000068 00000-0 24377-4 0 9990 2 31121 98.1783 7.8689 0075872 207.3540 152.3656 14.58640284738765 SAUDICOMSAT 5 1 31124U 07012H 21065.81262026 .00000113 00000-0 30544-4 0 9997 2 31124 98.0962 14.9710 0052851 67.9304 292.7500 14.63549114741183 SAUDICOMSAT 3 1 31125U 07012J 21065.82691671 .00000152 00000-0 36883-4 0 9996 2 31125 98.0597 17.1926 0043784 21.2586 339.0424 14.65321501742026 SAUDICOMSAT 4 1 31127U 07012L 21065.89194724 .00000074 00000-0 24669-4 0 9994 2 31127 98.1552 10.9676 0068417 158.0177 202.3983 14.60356765739638 APRIZESAT 4 1 35684U 09041D 21066.22389819 .00000119 00000-0 23403-4 0 9994 2 35684 98.3026 59.0680 0048127 51.0689 309.4796 14.79342734626034 APRIZESAT 3 1 35686U 09041F 21066.15901641 .00000110 00000-0 18502-4 0 9996 2 35686 98.1469 136.6867 0071383 271.9161 87.3880 14.87474817629184 AISSAT 1 1 36797U 10035C 21066.41647466 .00000284 00000-0 38746-4 0 9990 2 36797 98.2033 229.0760 0009922 245.6035 114.4144 14.86444925577186 S-NET D 1 43186U 18014G 21065.68914752 .00000888 00000-0 82111-4 0 9993 2 43186 97.6839 335.0916 0012527 69.9845 290.2724 14.96983819168921 S-NET B 1 43187U 18014H 21065.68903232 .00000893 00000-0 82527-4 0 9992 2 43187 97.6837 335.0616 0012526 69.8998 290.3570 14.96983371168927 S-NET A 1 43188U 18014J 21066.49111027 .00000940 00000-0 86664-4 0 9995 2 43188 97.6841 335.8900 0012541 67.6213 292.6336 14.96983608169042 S-NET C 1 43189U 18014K 21065.68948399 .00000902 00000-0 83383-4 0 9999 2 43189 97.6836 335.0554 0012520 69.8730 290.3838 14.96982461167472 SALSAT 1 46495U 20068K 21065.89715385 .00001301 00000-0 99988-4 0 9996 2 46495 97.6849 4.0566 0018018 61.3773 298.9262 15.03372359 23921